Location: Ocean City
(38.3360°N, 75.0850°W)
Time: 10:11:46
(UTC-04:00)

Max Valier Satellite - Pass Details

Date: 23 May 2019
Orbit: 491 x 508 km, 97.4° (Epoch: 26 June)

Event Time Altitude Azimuth Distance (km) Brightness Sun altitude
Exits shadow 22:11:24 40° 197° (SSW) 753 ? -19.3°
Maximum altitude 22:12:31 61° 260° (W) 570 ? -19.5°
Drops below altitude 10° 22:16:10 10° 341° (NNW) 1,716 ? -19.9°
Sets 22:18:18 0° 345° (NNW) 2,608 ? -20.2°
